[[{"header":{"parameterUnit":"m.s-1","parameterCategory":1,"la1":30.2991,"la2":30.254,"lo1":-89.0895,"lo2":-89.0444,"dy":0.0017,"dx":0.0017,"nx":28,"ny":28,"refTime":"2024-02-03T03:00:00:Z","depth":0,"parameterNumber":2,"parameterNumberName":"U-component_of_WINDS"},"data":[0,0,0,0,0,0,0,0,0,0,0,0,0,0,0,0,0,0,0,0,0,0,0,0,0,0,0,0,0,0,0,0,0,0,0,0,0,0,0,0,0,0,0,0,0,0,0,0,0,0,0,0,0,0,0,0,0,0,-12.0887,-12.0887,0,-12.0912,-12.0913,-12.0913,-12.0721,-12.0715,-12.071,-12.0705,-12.0727,-12.0732,-12.0737,0,0,0,0,0,0,0,0,0,0,0,0,0,-12.0667,-12.0672,-12.0887,-12.0887,-12.0888,-12.0912,-12.0913,-12.0913,-12.0722,-12.0715,-12.0709,-12.0703,-12.0725,-12.0731,-12.0738,0,0,0,0,0,0,0,0,0,0,0,0,0,-12.0734,-12.0674,-12.0887,-12.0795,-12.0787,-12.0912,-12.0913,-12.0913,-12.0723,-12.0715,-12.0707,-12.07,-12.0722,-12.0731,-12.0739,-12.0952,0,0,-12.0764,-12.0768,0,0,0,0,0,0,0,0,-12.0731,-12.0743,-12.0808,-12.0802,-12.0793,-12.0805,-12.0843,-12.0926,-12.0725,-12.0747,-12.0705,-12.0696,-12.0759,-12.0764,-12.0786,-12.0953,-12.0953,-12.0765,-12.077,-12.0774,-12.0776,0,0,0,0,0,0,0,-12.0726,-12.074,-12.0897,-12.081,-12.08,-12.0751,-12.0752,-12.0858,-12.0798,-12.0745,-12.0731,-12.0737,-12.0753,-12.0779,-12.0785,-12.0954,-12.0765,-12.0772,-12.0777,-12.0781,-12.1293,-12.1301,0,0,0,0,0,0,-12.0735,-12.0738,-12.0896,-12.0897,-12.0742,-12.0762,-12.0762,-12.0809,-12.0796,-12.0787,-12.0744,-12.0728,-12.0768,-12.0776,-12.0785,-12.103,-12.0774,-12.0782,-12.0786,-12.1284,-12.1295,-12.1304,0,0,0,0,0,0,-12.0731,-12.0751,-12.0895,-12.0814,-12.0829,-12.0774,-12.0828,-12.0814,-12.0839,-12.0795,-12.0783,-12.0781,-12.0762,-12.0773,-12.0911,-12.1028,-12.0785,-12.0793,-12.1274,-12.1288,-12.1299,-12.1524,0,0,0,0,0,0,-12.0725,-12.075,-12.0832,-12.0817,-12.0834,-12.1023,-12.0836,-12.0821,-12.0855,-12.0834,-12.0827,-12.0818,-12.0757,-12.09,-12.092,-12.1035,-12.0799,-12.1263,-12.128,-12.1295,-12.1506,-12.1543,-12.1575,0,0,0,0,0,-12.0718,-12.0894,-12.0837,-12.0857,-12.0935,-12.103,-12.1039,-12.0966,-12.0865,-12.0945,-12.0917,-12.0818,-12.1014,-12.0916,-12.0936,-12.1056,-12.1256,-12.1275,-12.1294,-12.149,-12.1536,-12.1574,0,0,0,0,0,0,-12.0921,-12.089,-12.0827,-12.1003,-12.1021,-12.0997,-12.1096,-12.1017,-12.1062,-12.1041,-12.0947,-12.0947,-12.11,-12.1092,-12.0984,-12.126,-12.1116,-12.1141,-12.1259,-12.1301,-12.1335,-12.1331,-12.0806,0,0,0,0,0,-12.0988,-12.1069,-12.1037,-12.1195,-12.1208,-12.1152,-12.119,-12.1133,-12.1146,-12.1152,-12.1134,-12.115,-12.1213,-12.1258,-12.1315,-12.1506,-12.1499,-12.1598,-12.1633,-12.1661,-12.1682,-12.1779,-12.1821,-12.1368,-12.1367,-12.1367,0,0,-12.1123,-12.1116,-12.1173,-12.1236,-12.1243,-12.1327,-12.1158,-12.1255,-12.1316,-12.1166,-12.1294,-12.1282,-12.1293,-12.1458,-12.1529,-12.1456,-12.1807,-12.1686,-12.1709,-12.1714,-12.1803,-12.1846,-12.1884,-12.1381,-12.1378,-12.1376,0,0,-12.1412,-12.1418,-12.1548,-12.1559,-12.1572,-12.1534,-12.1566,-12.1555,-12.1541,-12.1669,-12.1558,-12.1629,-12.1743,-12.1754,-12.1775,-12.2071,-12.198,-12.2092,-12.227,-12.2366,-12.2402,-12.2433,-12.2534,-12.2572,-12.2114,-12.2115,-12.2115,0,-12.1578,-12.1703,-12.1626,-12.173,-12.1759,-12.163,-12.176,-12.1774,-12.1805,-12.1828,-12.1747,-12.1886,-12.1884,-12.2048,-12.212,-12.2144,-12.2174,-12.209,-12.2403,-12.2434,-12.2462,-12.2557,-12.2596,-12.2128,-12.2126,-12.2125,-12.2124,0,-12.1904,-12.1992,-12.2097,-12.213,-12.2172,-12.229,-12.2228,-12.228,-12.222,-12.219,-12.232,-12.2315,-12.2367,-12.2403,-12.2345,-12.2559,-12.2513,-12.242,-12.2272,-12.2519,-12.2607,-12.2644,-12.2147,-12.2142,-12.2138,-12.2135,0,0,-12.2318,-12.231,-12.2349,-12.2362,-12.2368,-12.2433,-12.2544,-12.2597,-12.2641,-12.2668,-12.2755,-12.2856,-12.2769,-12.2793,-12.2736,-12.2821,-12.3051,-12.2716,-12.2715,-12.2775,-12.3281,-12.3348,-12.3392,-12.2993,-12.3,-12.3005,-12.3279,0,-12.2597,-12.2786,-12.272,-12.2912,-12.299,-12.287,-12.2966,-12.2979,-12.2955,-12.3016,-12.2988,-12.3059,-12.2942,-12.2955,-12.3034,-12.3006,-12.315,-12.2986,-12.307,-12.3074,-12.3066,-12.3438,-12.3509,-12.3767,-12.3313,-12.3319,-12.3323,0,-12.2947,-12.2988,-12.3188,-12.3179,-12.3209,-12.3297,-12.3339,-12.3401,-12.3413,-12.3388,-12.3417,-12.3341,-12.3447,-12.3305,-12.3447,-12.3337,-12.3369,-12.3361,-12.3369,-12.3369,-12.321,-12.3445,-12.3848,-12.3886,-12.3378,-12.3373,-12.3369,0,-12.3223,-12.3329,-12.3462,-12.3477,-12.3471,-12.3535,-12.3535,-12.3539,-12.3575,-12.3612,-12.3634,-12.3684,-12.3709,-12.3749,-12.3687,-12.359,-12.3838,-12.3691,-12.3818,-12.3819,-12.3871,-12.3867,-12.4281,-12.3901,-12.39,-12.3899,-12.3898,0,-12.3538,-12.3664,-12.3585,-12.3667,-12.3803,-12.3727,-12.3864,-12.3851,-12.3856,-12.393,-12.3831,-12.3903,-12.382,-12.3884,-12.3838,-12.3961,-12.3975,-12.3956,-12.3941,-12.3962,-12.3964,-12.3977,-12.3956,-12.3909,-12.3907,-12.3905,-12.3903,0,-12.3868,-12.3821,-12.3957,-12.3941,-12.394,-12.4041,-12.4026,-12.4099,-12.4068,-12.4164,-12.4182,-12.4134,-12.4204,-12.4148,-12.4217,-12.4186,-12.4347,-12.431,-12.4343,-12.4331,-12.4459,-12.4446,-12.4891,-12.4943,-12.4535,-12.4539,-12.4542,0,-12.407,-12.4164,-12.4158,-12.4202,-12.4208,-12.428,-12.4316,-12.4245,-12.4286,-12.4307,-12.4378,-12.444,-12.4484,-12.4602,-12.4572,-12.4623,-12.4583,-12.4736,-12.4589,-12.4607,-12.4579,-12.4573,-12.458,-12.4763,-12.4768,-12.4772,-12.4775,0,-12.4431,-12.4403,-12.4459,-12.4509,-12.4555,-12.459,-12.4616,-12.4657,-12.4585,-12.4636,-12.4707,-12.4742,-12.4813,-12.4874,-12.4916,-12.4914,-12.4832,-12.4823,-12.4853,-12.4873,-12.4887,-12.4876,-12.4419,-12.4811,-12.4807,-12.4805,-12.4803,-12.4801,-12.4699,-12.4776,-12.4784,-12.485,-12.4863,-12.489,-12.4957,-12.4936,-12.4994,-12.5046,-12.5001,-12.5086,-12.5094,-12.5141,-12.515,-12.5214,-12.515,-12.5197,-12.5207,-12.5218,-12.5235,-12.4882,-12.5222,-12.5221,-12.522,-12.5219,-12.5218,0,-12.5051,-12.505,-12.5112,-12.5153,-12.5204,-12.5127,-12.5152,-12.5199,-12.5275,-12.5291,-12.5338,-12.5419,-12.5478,-12.5454,-12.5506,-12.5562,-12.5525,-12.5577,-12.5569,-12.557,-12.5291,-12.5256,-12.5606,-12.5605,-12.5605,-12.5605,-12.5605,-12.5605,-12.524,-12.5364,-12.5338,-12.5468,-12.5466,-12.5549,-12.5569,-12.5593,-12.5605,-12.57,-12.5749,-12.5734,-12.5733,-12.5784,-12.5835,-12.5826,-12.5847,-12.5912,-12.589,-12.5628,-12.559,-12.5553,-12.552,-12.5919,-12.5919,-12.6162,-12.6164,-12.6166]},{"header":{"parameterUnit":"m.s-1","parameterCategory":1,"la1":30.2991,"la2":30.254,"lo1":-89.0895,"lo2":-89.0444,"dy":0.0017,"dx":0.0017,"nx":28,"ny":28,"refTime":"2024-02-03T03:00:00:Z","depth":0,"parameterNumber":3,"parameterNumberName":"V-component_of_WINDS"},"data":[0,0,0,0,0,0,0,0,0,0,0,0,0,0,0,0,0,0,0,0,0,0,0,0,0,0,0,0,0,0,0,0,0,0,0,0,0,0,0,0,0,0,0,0,0,0,0,0,0,0,0,0,0,0,0,0,0,0,3.2378,3.2379,0,3.2439,3.244,3.2441,3.2395,3.2393,3.2391,3.2389,3.2448,3.2451,3.2454,0,0,0,0,0,0,0,0,0,0,0,0,0,3.222,3.2223,3.2378,3.2379,3.238,3.2439,3.244,3.2441,3.2395,3.2393,3.2391,3.2388,3.2447,3.2451,3.2455,0,0,0,0,0,0,0,0,0,0,0,0,0,3.2286,3.2224,3.2378,3.2364,3.2364,3.2439,3.244,3.2441,3.2396,3.2393,3.239,3.2387,3.2445,3.245,3.2455,3.2546,0,0,3.2471,3.2473,0,0,0,0,0,0,0,0,3.2282,3.2291,3.2366,3.2366,3.2365,3.2407,3.2406,3.2476,3.2397,3.2384,3.2389,3.2386,3.2436,3.2442,3.246,3.2549,3.2551,3.2471,3.2474,3.2476,3.2478,0,0,0,0,0,0,0,3.2277,3.2289,3.2402,3.2367,3.2366,3.2354,3.236,3.2419,3.2426,3.2385,3.2381,3.2389,3.2435,3.2455,3.2461,3.2552,3.2471,3.2476,3.2479,3.2481,3.272,3.2723,0,0,0,0,0,0,3.2275,3.2285,3.24,3.2404,3.2315,3.236,3.2366,3.2396,3.2425,3.2426,3.2392,3.2387,3.2448,3.2455,3.2462,3.2572,3.2476,3.2481,3.2484,3.2717,3.2721,3.2725,0,0,0,0,0,0,3.2271,3.2285,3.2398,3.2344,3.2357,3.2366,3.2399,3.2399,3.2418,3.2431,3.2431,3.2411,3.2445,3.2455,3.2526,3.2573,3.2483,3.2488,3.2713,3.2718,3.2723,3.2791,0,0,0,0,0,0,3.2267,3.2285,3.232,3.2345,3.236,3.2462,3.2402,3.2402,3.2428,3.2422,3.2448,3.245,3.2444,3.2519,3.2531,3.2579,3.2492,3.2709,3.2715,3.2721,3.2784,3.2797,3.2809,0,0,0,0,0,3.2262,3.2335,3.2322,3.2336,3.2405,3.2464,3.2473,3.2466,3.2432,3.2467,3.2475,3.2449,3.2566,3.2527,3.254,3.259,3.2706,3.2714,3.2721,3.2779,3.2795,3.2808,0,0,0,0,0,0,3.2313,3.2338,3.2323,3.2407,3.2434,3.2457,3.25,3.2483,3.2519,3.2512,3.25,3.2506,3.2581,3.2592,3.2548,3.268,3.263,3.2641,3.267,3.2685,3.2697,3.2693,3.2496,0,0,0,0,0,3.2334,3.2382,3.2401,3.2473,3.2487,3.2492,3.2518,3.251,3.2537,3.2548,3.2561,3.2587,3.263,3.2658,3.2698,3.2786,3.2791,3.2827,3.2839,3.2849,3.2858,3.2907,3.2923,3.2749,3.2749,3.2749,0,0,3.2378,3.2398,3.2428,3.2484,3.2504,3.2553,3.2502,3.2555,3.2591,3.2555,3.2624,3.2635,3.2663,3.2743,3.2779,3.2755,3.2907,3.2858,3.2866,3.287,3.2916,3.2933,3.2947,3.2754,3.2753,3.2752,0,0,3.2484,3.2503,3.2567,3.2588,3.262,3.2623,3.2638,3.2664,3.267,3.2739,3.2714,3.2756,3.283,3.2852,3.2872,3.2989,3.2966,3.3002,3.3065,3.3113,3.3127,3.3139,3.3181,3.3196,3.3011,3.3011,3.3011,0,3.2534,3.2608,3.2601,3.2657,3.2683,3.2655,3.2718,3.2739,3.2782,3.28,3.2772,3.2866,3.2882,3.2968,3.2997,3.3014,3.3032,3.2999,3.3125,3.3137,3.3149,3.3189,3.3205,3.3015,3.3015,3.3014,3.3014,0,3.2669,3.2721,3.2768,3.2812,3.2843,3.2903,3.2904,3.2936,3.2926,3.2932,3.3003,3.3023,3.3067,3.3087,3.3076,3.3172,3.3156,3.3127,3.3077,3.317,3.3207,3.3223,3.3021,3.302,3.3018,3.3017,0,0,3.2808,3.2849,3.2867,3.2887,3.2921,3.296,3.3019,3.3064,3.3092,3.3122,3.3172,3.3236,3.321,3.3234,3.3226,3.3268,3.3361,3.3234,3.3235,3.3258,3.3468,3.349,3.3508,3.3346,3.3349,3.3351,3.3466,0,3.2916,3.302,3.3016,3.3113,3.3161,3.3136,3.3187,3.3213,3.322,3.3262,3.3269,3.3315,3.3277,3.3292,3.3332,3.3341,3.3403,3.3332,3.3391,3.3394,3.3386,3.3527,3.355,3.3658,3.348,3.3483,3.3485,0,3.3056,3.3094,3.3197,3.3225,3.3245,3.3291,3.3333,3.3373,3.3402,3.3405,3.3432,3.3418,3.3478,3.3427,3.3508,3.3461,3.3484,3.3493,3.3497,3.3502,3.3445,3.3538,3.3691,3.3708,3.3508,3.3506,3.3504,0,3.3149,3.3225,3.3297,3.3315,3.3349,3.3383,3.3399,3.3425,3.3453,3.3489,3.3507,3.3549,3.3572,3.3605,3.3603,3.3565,3.3686,3.3634,3.3689,3.369,3.3716,3.3715,3.3877,3.3731,3.373,3.373,3.373,0,3.3271,3.3335,3.3339,3.3383,3.3454,3.3449,3.3519,3.3531,3.3555,3.3601,3.358,3.3623,3.3618,3.3661,3.3659,3.3728,3.3738,3.3741,3.374,3.3744,3.3744,3.3759,3.3752,3.3734,3.3733,3.3732,3.3732,0,3.3387,3.3392,3.3469,3.3496,3.3504,3.3556,3.3579,3.362,3.3626,3.3684,3.3698,3.3707,3.3757,3.3758,3.3814,3.3813,3.3898,3.3887,3.3888,3.3887,3.3943,3.3938,3.4121,3.4145,3.3983,3.3984,3.3985,0,3.3465,3.3514,3.3547,3.3577,3.3595,3.3644,3.3673,3.3669,3.37,3.3738,3.3775,3.3824,3.3862,3.3943,3.3954,3.3998,3.3989,3.4051,3.3996,3.3998,3.3992,3.3989,3.3995,3.4062,3.4063,3.4065,3.4066,0,3.3603,3.3604,3.3647,3.3693,3.3728,3.3763,3.3795,3.3821,3.3821,3.3857,3.3909,3.3939,3.3998,3.4046,3.4089,3.4104,3.4086,3.4083,3.4099,3.4103,3.4102,3.4105,3.3919,3.4079,3.4078,3.4077,3.4076,3.4076,3.3703,3.3746,3.3777,3.3826,3.3851,3.3882,3.3923,3.3935,3.3979,3.4028,3.4023,3.4081,3.4109,3.4165,3.4184,3.4229,3.4207,3.4229,3.4235,3.424,3.4247,3.4095,3.4236,3.4236,3.4235,3.4235,3.4235,0,3.3841,3.386,3.3906,3.3953,3.3992,3.3973,3.4008,3.4042,3.4094,3.4122,3.4162,3.4222,3.4269,3.4285,3.433,3.4363,3.4356,3.4376,3.4374,3.4378,3.4263,3.4246,3.4381,3.4381,3.4381,3.4381,3.4381,3.4381,3.3918,3.3991,3.3995,3.408,3.4098,3.4156,3.4178,3.4206,3.423,3.4298,3.4338,3.4349,3.4372,3.442,3.4463,3.4466,3.4484,3.4508,3.4507,3.44,3.4385,3.4371,3.4355,3.4511,3.4511,3.4618,3.4619,3.462]}]]